User: anonymous   Login
Location: Unspecified
(0.0000°N, 0.0000°E)
Time: 07:33:43
(UTC+00:00)
Language:

PRISMA (TANGO) - Orbit

View from above orbital plane
View from above orbital plane
View from above satellite
View from above satellite

Ground track
Ground track

The orbit data is extracted from the following two-line orbital elements,

1 36827U 10028F   19082.95309616 +.00000023 +00000-0 +20299-4 0  9997
2 36827 098.5163 258.2978 0041558 261.2460 098.4022 14.42385081321798
Epoch (UTC): 23 March 2019 22:52:27
Eccentricity: 0.0041558
inclination: 98.5163°
perigee height: 721 km
apogee height: 780 km
right ascension of ascending node: 258.2978°
argument of perigee: 261.2460°
revolutions per day: 14.42385081
mean anomaly at epoch: 98.4022°
orbit number at epoch: 32179

The dashed part of the orbit path shows where the satellite is in the earth's shadow,  

DLR